Regional Weather Roundup
Issued by NWS Green Bay, WI

Home | Current Version | Previous Version | Graphics & Text | Print | Product List | Glossary Off
Versions: 1 2 3 4 5 6 7 8 9 10 11 12 13 14 15 16 17 18 19 20 21 22 23 24 25 26 27 28 29 30 31 32 33 34 35 36 37 38 39 40 41 42 43 44 45 46 47 48 49 50

000
ASUS43 KGRB 291411
RWRGRB

NORTH-CENTRAL AND NORTHEAST WISCONSIN REGIONAL WEATHER ROUNDUP
NATIONAL WEATHER SERVICE GREEN BAY WI
900 AM CDT SUN MAY 29 2016

WIZ005-009-010>012-018-019-291500-
NORTH CENTRAL WISCONSIN

CITY           SKY/WX    TMP DP  RH WIND       PRES   REMARKS
IRONWOOD       CLOUDY    61  59  94 W9        29.80R
MANITOWISH WTR NOT AVBL
ARBOR VITAE    RAIN      62  60  93 SW6       29.84S
EAGLE RIVER      N/A     64  59  84 SW9       29.84S
LAND O LAKES   CLOUDY    64  59  85 SW7       29.84S
RHINELANDER    CLOUDY    63  58  83 W7        29.86S
PHILLIPS       CLOUDY    60  59  97 W5        29.85S
ANTIGO         CLOUDY    64  60  90 SW9       29.86S
TOMAHAWK       CLOUDY    61  59  94 CALM      29.86S
MERRILL        RAIN      61  61 100 W6        29.87R
$$

WIZ013-073-291500-
NORTHEAST WISCONSIN

CITY           SKY/WX    TMP DP  RH WIND       PRES   REMARKS
IRON MOUNTAIN  PTSUNNY   68  61  78 S9        29.83S
MARINETTE      CLOUDY    70  63  78 S13       29.86S
OCONTO         PTSUNNY   71  66  84 SW9       29.85F
$$

WIZ017-030-035>037-045-291500-
CENTRAL WISCONSIN

CITY           SKY/WX    TMP DP  RH WIND       PRES   REMARKS
MEDFORD        CLOUDY    61  61  99 W9        29.88R
WAUSAU         LGT RAIN  63  60  90 W13       29.85R
MOSINEE        LGT RAIN  63  63 100 W12       29.88R
MARSHFIELD     CLOUDY    63  60  90 W12       29.89R
WISC RAPIDS    LGT RAIN  63  60  90 W13       29.90R
STEVENS POINT  HVY RAIN  62  60  91 SW8       29.88R
WAUPACA        CLOUDY    67  64  89 S8        29.89R
SHAWANO        MOSUNNY   71  62  74 S6        29.86F
CLINTONVILLE   CLOUDY    68  59  73 SW8G17    29.87R
WAUTOMA        NOT AVBL
$$

WIZ038-039-048-051-291500-
FOX VALLEY

CITY           SKY/WX    TMP DP  RH WIND       PRES   REMARKS
NWS GREEN BAY  PTSUNNY   69  62  78 S10       29.87F
APPLETON       CLOUDY    66  57  72 SW14      29.87S
OSHKOSH        CLOUDY    66  60  81 SW15      29.89S
FOND DU LAC    PTSUNNY   67  61  81 SW15G23   29.91R
$$

WIZ022-050-052-291500-
EAST CENTRAL WISCONSIN

CITY           SKY/WX    TMP DP  RH WIND       PRES   REMARKS
EPHRAIM        FAIR      69  62  79 S8        29.86F
STURGEON BAY   NOT AVBL
MANITOWOC      MOSUNNY   69  63  81 S13       29.90F
SHEBOYGAN      PTSUNNY   71  63  75 SW15      29.91R
$$

LMZ563-521-522-541>543-291500-
LAKESHORE

STATION/POSITION TIME  TEMP    WIND        PRES    VSBY  WAVE
                       AIR SEA DIR/SP/G                  HT/PER
                 (UTC) (F)     (DEG/KT/KT) (MB)    (MI)  (FT/S)
SHEBOYGAN LKSHOR 1400   58     190/ 17/ 18 1013.2R
KEWAUNEE LKSHORE 1300   51     170/ 10/ 11 1011.8R
ALGOMA MARINA    1302          210/ 11/ 13   N/A
NORTHPORT PIER   1300   54     150/  7/ 10 1011.9S
N MID LAKE BUOY  1350   49 46  190/ 16/ 17 1011.8F         2/ 5
SISTER BAY LKSHO 1320   68     180/ 14/ 16   N/A
CHAMBERS ISLAND  1300   66     160/  5/ 11 1011.2S
MENOMINEE LKSHOR 1300   64     180/  9/ 13 1010.2S
$$



USA.gov is the U.S. government's official web portal to all federal, state and local government web resources and services.